[[{"header":{"parameterUnit":"m.s-1","parameterCategory":1,"la1":30.2991,"la2":30.254,"lo1":-89.0895,"lo2":-89.0444,"dy":0.0017,"dx":0.0017,"nx":28,"ny":28,"refTime":"2024-06-28T21:00:00:Z","depth":0,"parameterNumber":2,"parameterNumberName":"U-component_of_WINDS"},"data":[0,0,0,0,0,0,0,0,0,0,0,0,0,0,0,0,0,0,0,0,0,0,0,0,0,0,0,0,0,0,0,0,0,0,0,0,0,0,0,0,0,0,0,0,0,0,0,0,0,0,0,0,0,0,0,0,0,0,3.8876,3.8878,0,3.9093,3.9095,3.9098,3.9121,3.9119,3.9117,3.9115,3.9338,3.9346,3.9354,0,0,0,0,0,0,0,0,0,0,0,0,0,3.8483,3.849,3.8876,3.8879,3.8881,3.9092,3.9095,3.9098,3.9121,3.9119,3.9116,3.9114,3.9335,3.9345,3.9354,0,0,0,0,0,0,0,0,0,0,0,0,0,3.8672,3.8492,3.8875,3.8918,3.8924,3.9092,3.9096,3.9099,3.9122,3.9119,3.9115,3.9112,3.9332,3.9344,3.9356,3.9496,0,0,3.9392,3.9398,0,0,0,0,0,0,0,0,3.8661,3.8686,3.8909,3.8916,3.8923,3.9076,3.9039,3.9232,3.9123,3.9047,3.9114,3.9111,3.9254,3.9272,3.932,3.9506,3.9516,3.9393,3.9401,3.9406,3.9409,0,0,0,0,0,0,0,3.8648,3.8677,3.8962,3.8912,3.8921,3.8927,3.895,3.9075,3.9166,3.9053,3.9055,3.9081,3.9257,3.9308,3.9325,3.9519,3.9393,3.9404,3.9411,3.9416,3.983,3.9834,0,0,0,0,0,0,3.8627,3.8666,3.8955,3.8968,3.8781,3.8937,3.8963,3.903,3.9165,3.9182,3.9083,3.9081,3.9289,3.9311,3.9333,3.9505,3.9406,3.9417,3.9424,3.9827,3.9831,3.9835,0,0,0,0,0,0,3.8618,3.8652,3.8946,3.8818,3.8856,3.8947,3.9023,3.9036,3.9088,3.9188,3.9204,3.9119,3.9288,3.9316,3.9455,3.9513,3.9422,3.9433,3.9822,3.9828,3.9833,3.985,0,0,0,0,0,0,3.8607,3.8649,3.8703,3.8819,3.8862,3.9064,3.9027,3.9043,3.9108,3.9107,3.9226,3.9242,3.9287,3.9437,3.9467,3.9528,3.9443,3.9817,3.9825,3.9831,3.9844,3.9855,3.9865,0,0,0,0,0,3.8593,3.87,3.8706,3.874,3.8932,3.9067,3.9092,3.9141,3.9113,3.9168,3.9232,3.9238,3.9502,3.9451,3.9485,3.955,3.9814,3.9823,3.9831,3.984,3.9853,3.9864,0,0,0,0,0,0,3.8589,3.8716,3.8724,3.8871,3.8958,3.9071,3.9141,3.9154,3.9251,3.9246,3.9304,3.9331,3.9466,3.9523,3.9463,3.9692,3.9655,3.9671,3.965,3.9664,3.9674,3.9656,3.9453,0,0,0,0,0,3.8605,3.8704,3.881,3.893,3.8973,3.905,3.9111,3.9141,3.9234,3.9271,3.9345,3.9435,3.9538,3.9604,3.9705,3.9853,3.9879,3.9915,3.9925,3.9933,3.9945,4.0026,4.0043,3.9864,3.9863,3.9863,0,0,3.864,3.8721,3.878,3.8931,3.9002,3.9103,3.9081,3.9189,3.9264,3.9287,3.9422,3.9479,3.9584,3.9727,3.9794,3.9778,4.0001,3.9944,3.9949,3.9958,4.0037,4.0054,4.0069,3.9869,3.9868,3.9867,0,0,3.8754,3.8827,3.8933,3.9005,3.9112,3.9163,3.9188,3.9299,3.9338,3.9474,3.9493,3.9584,3.9761,3.9834,3.9894,4.0035,4.0044,4.0067,4.0119,4.0197,4.0211,4.0224,4.0273,4.029,4.0079,4.0079,4.0079,0,3.8784,3.8936,3.8987,3.9094,3.916,3.9185,3.9293,3.9361,3.9495,3.954,3.952,3.9741,3.9814,3.9974,4.0008,4.0057,4.0087,4.0052,4.0205,4.0219,4.0231,4.0278,4.0297,4.0081,4.0081,4.0081,4.0081,0,3.8966,3.9072,3.9146,3.9274,3.9348,3.9455,3.9522,3.9591,3.9616,3.9668,3.9806,3.9893,4.0011,4.0052,4.0077,4.0215,4.0202,4.0193,4.0157,4.0249,4.0294,4.0313,4.0084,4.0083,4.0082,4.0082,0,0,3.9083,3.9238,3.9264,3.9322,3.9442,3.9525,3.9634,3.9748,3.9805,3.9898,3.9989,4.0138,4.0131,4.0199,4.0233,4.0302,4.0406,4.0285,4.0288,4.0302,4.0562,4.0566,4.0586,4.0414,4.0417,4.042,4.0553,0,3.9209,3.9402,3.9451,3.9616,3.9713,3.9739,3.9833,3.9917,3.9969,4.006,4.0118,4.0221,4.0204,4.0245,4.0315,4.0379,4.0459,4.037,4.0498,4.0502,4.0469,4.061,4.0615,4.0735,4.0571,4.0574,4.0576,0,3.9382,3.9477,3.965,3.9757,3.98,3.9884,3.9992,4.0079,4.0174,4.0207,4.0283,4.031,4.0424,4.0383,4.054,4.0478,4.0534,4.0574,4.0579,4.0591,4.0543,4.0624,4.0775,4.0792,4.0605,4.0602,4.06,0,3.9447,3.9618,3.9744,3.9793,3.9921,3.9979,4.0036,4.0128,4.0194,4.0289,4.0332,4.0439,4.0498,4.058,4.0635,4.0601,4.0787,4.0751,4.0817,4.0815,4.0853,4.085,4.1013,4.0893,4.0893,4.0892,4.0892,0,3.9581,3.9686,3.9775,3.9852,3.997,4.0025,4.0141,4.0198,4.028,4.0368,4.0398,4.0481,4.055,4.0642,4.0686,4.0808,4.0835,4.0864,4.0874,4.086,4.0856,4.0896,4.0888,4.0897,4.0896,4.0895,4.0894,0,3.9672,3.9736,3.9875,3.9984,4.0014,4.0096,4.019,4.0266,4.0319,4.0431,4.046,4.0544,4.0653,4.0717,4.0856,4.0885,4.102,4.1028,4.0987,4.0991,4.1052,4.1045,4.1245,4.1274,4.1137,4.1138,4.1139,0,3.9753,3.9834,3.9952,4.0013,4.007,4.0168,4.0234,4.0293,4.0361,4.0476,4.0538,4.0649,4.0741,4.0915,4.0988,4.1094,4.1103,4.1166,4.1119,4.1101,4.1101,4.1094,4.1102,4.1173,4.1174,4.1175,4.1176,0,3.9888,3.9915,4.001,4.0115,4.0194,4.028,4.0366,4.0414,4.0487,4.0562,4.0674,4.0745,4.0886,4.0996,4.1108,4.1166,4.1183,4.119,4.1211,4.1196,4.1168,4.1181,4.1007,4.1185,4.1184,4.1183,4.1183,4.1182,3.9975,4.0047,4.0141,4.0245,4.0316,4.0395,4.0471,4.0533,4.0628,4.0746,4.0775,4.0893,4.0986,4.1138,4.1199,4.1291,4.1281,4.1311,4.1318,4.1324,4.1324,4.1155,4.1312,4.1312,4.1312,4.1312,4.1312,0,4.0109,4.0171,4.0266,4.0384,4.0466,4.0475,4.0571,4.0638,4.0741,4.0826,4.0916,4.1044,4.115,4.1232,4.1341,4.1399,4.1409,4.1425,4.1421,4.1433,4.1329,4.1299,4.1415,4.1415,4.1415,4.1415,4.1415,4.1415,4.0188,4.0311,4.0349,4.0507,4.0569,4.0683,4.0736,4.0809,4.0877,4.1019,4.1107,4.1159,4.1243,4.1359,4.1456,4.1478,4.1515,4.153,4.1552,4.1452,4.1441,4.143,4.1402,4.1538,4.1538,4.1648,4.1649,4.165]},{"header":{"parameterUnit":"m.s-1","parameterCategory":1,"la1":30.2991,"la2":30.254,"lo1":-89.0895,"lo2":-89.0444,"dy":0.0017,"dx":0.0017,"nx":28,"ny":28,"refTime":"2024-06-28T21:00:00:Z","depth":0,"parameterNumber":3,"parameterNumberName":"V-component_of_WINDS"},"data":[0,0,0,0,0,0,0,0,0,0,0,0,0,0,0,0,0,0,0,0,0,0,0,0,0,0,0,0,0,0,0,0,0,0,0,0,0,0,0,0,0,0,0,0,0,0,0,0,0,0,0,0,0,0,0,0,0,0,-0.2407,-0.2407,0,-0.2434,-0.2434,-0.2435,-0.2423,-0.2422,-0.2422,-0.2421,-0.2451,-0.2453,-0.2454,0,0,0,0,0,0,0,0,0,0,0,0,0,-0.2349,-0.235,-0.2407,-0.2407,-0.2408,-0.2434,-0.2434,-0.2435,-0.2423,-0.2422,-0.2422,-0.2421,-0.2451,-0.2453,-0.2454,0,0,0,0,0,0,0,0,0,0,0,0,0,-0.2375,-0.235,-0.2407,-0.2405,-0.2405,-0.2434,-0.2434,-0.2435,-0.2423,-0.2422,-0.2421,-0.242,-0.245,-0.2453,-0.2455,-0.2488,0,0,-0.2461,-0.2462,0,0,0,0,0,0,0,0,-0.2373,-0.2377,-0.2405,-0.2405,-0.2405,-0.2424,-0.2425,-0.2453,-0.2424,-0.2417,-0.2421,-0.242,-0.2443,-0.2446,-0.2453,-0.2489,-0.2491,-0.2461,-0.2463,-0.2464,-0.2464,0,0,0,0,0,0,0,-0.2372,-0.2376,-0.2418,-0.2405,-0.2406,-0.2404,-0.2407,-0.243,-0.2435,-0.2417,-0.2416,-0.242,-0.2443,-0.2451,-0.2454,-0.2491,-0.2461,-0.2463,-0.2465,-0.2465,-0.2557,-0.2559,0,0,0,0,0,0,-0.2369,-0.2374,-0.2417,-0.2419,-0.2386,-0.2406,-0.2409,-0.2419,-0.2435,-0.2436,-0.242,-0.2419,-0.2448,-0.2452,-0.2455,-0.2496,-0.2464,-0.2466,-0.2467,-0.2556,-0.2558,-0.2559,0,0,0,0,0,0,-0.2368,-0.2373,-0.2416,-0.2396,-0.2402,-0.2408,-0.242,-0.242,-0.2428,-0.2437,-0.2439,-0.2427,-0.2448,-0.2452,-0.248,-0.2497,-0.2467,-0.2468,-0.2555,-0.2557,-0.2558,-0.2578,0,0,0,0,0,0,-0.2366,-0.2373,-0.2385,-0.2397,-0.2403,-0.2439,-0.2421,-0.2421,-0.2432,-0.243,-0.2444,-0.2446,-0.2447,-0.2477,-0.2482,-0.2499,-0.247,-0.2553,-0.2556,-0.2558,-0.2576,-0.258,-0.2583,0,0,0,0,0,-0.2364,-0.2389,-0.2385,-0.239,-0.2417,-0.244,-0.2444,-0.2444,-0.2433,-0.2446,-0.2452,-0.2445,-0.2494,-0.248,-0.2486,-0.2504,-0.2552,-0.2555,-0.2558,-0.2574,-0.2579,-0.2583,0,0,0,0,0,0,-0.2379,-0.2391,-0.2386,-0.2415,-0.2427,-0.2438,-0.2454,-0.2449,-0.2465,-0.2463,-0.2463,-0.2467,-0.2496,-0.2503,-0.2486,-0.2538,-0.2522,-0.2526,-0.2532,-0.2537,-0.2541,-0.2539,-0.2472,0,0,0,0,0,-0.2386,-0.2403,-0.2412,-0.2437,-0.2443,-0.2447,-0.2457,-0.2457,-0.2469,-0.2474,-0.2482,-0.2495,-0.2514,-0.2526,-0.2543,-0.2576,-0.258,-0.2592,-0.2596,-0.2599,-0.2603,-0.2623,-0.2628,-0.2568,-0.2568,-0.2567,0,0,-0.24,-0.2408,-0.2419,-0.244,-0.2449,-0.2467,-0.2452,-0.2471,-0.2486,-0.2477,-0.2504,-0.2511,-0.2526,-0.2557,-0.2571,-0.2563,-0.2621,-0.2603,-0.2605,-0.2607,-0.2626,-0.2632,-0.2637,-0.2569,-0.2569,-0.2569,0,0,-0.2435,-0.2442,-0.2464,-0.2474,-0.2487,-0.249,-0.2496,-0.2508,-0.2512,-0.2539,-0.2533,-0.2551,-0.2582,-0.2593,-0.2603,-0.2644,-0.2639,-0.265,-0.2671,-0.269,-0.2695,-0.2699,-0.2715,-0.2721,-0.2653,-0.2653,-0.2653,0,-0.2451,-0.2477,-0.2476,-0.2497,-0.2508,-0.25,-0.2524,-0.2533,-0.2552,-0.256,-0.2551,-0.2591,-0.26,-0.2635,-0.2645,-0.2653,-0.266,-0.2648,-0.2694,-0.2698,-0.2702,-0.2718,-0.2723,-0.2654,-0.2654,-0.2654,-0.2654,0,-0.2497,-0.2516,-0.2532,-0.255,-0.2562,-0.2584,-0.2588,-0.2601,-0.2599,-0.2604,-0.2633,-0.2644,-0.2664,-0.2672,-0.2671,-0.2707,-0.2702,-0.2694,-0.2678,-0.271,-0.2724,-0.273,-0.2656,-0.2656,-0.2655,-0.2655,0,0,-0.2542,-0.2559,-0.2566,-0.2574,-0.2589,-0.2604,-0.2627,-0.2646,-0.2658,-0.2671,-0.2691,-0.2718,-0.2711,-0.2722,-0.2723,-0.274,-0.2773,-0.2729,-0.273,-0.2738,-0.2815,-0.2822,-0.2829,-0.277,-0.2771,-0.2772,-0.2815,0,-0.2579,-0.2617,-0.2617,-0.2653,-0.2671,-0.2666,-0.2685,-0.2698,-0.2703,-0.272,-0.2726,-0.2746,-0.2734,-0.2741,-0.2758,-0.2765,-0.2789,-0.2762,-0.279,-0.2791,-0.2787,-0.2836,-0.2843,-0.2882,-0.282,-0.2821,-0.2822,0,-0.2626,-0.2641,-0.2679,-0.2692,-0.27,-0.2718,-0.2736,-0.2752,-0.2767,-0.277,-0.2783,-0.2781,-0.2806,-0.2789,-0.2824,-0.2806,-0.2817,-0.2823,-0.2824,-0.2828,-0.2809,-0.2841,-0.2895,-0.2901,-0.283,-0.283,-0.2829,0,-0.2657,-0.2686,-0.2713,-0.272,-0.2736,-0.2749,-0.2757,-0.277,-0.2782,-0.2799,-0.2807,-0.2826,-0.2837,-0.2853,-0.2857,-0.2844,-0.2893,-0.2876,-0.2897,-0.2897,-0.2908,-0.2907,-0.2965,-0.2914,-0.2914,-0.2914,-0.2913,0,-0.2698,-0.2722,-0.2727,-0.2743,-0.277,-0.2771,-0.2798,-0.2805,-0.2817,-0.2836,-0.2832,-0.285,-0.2854,-0.2873,-0.2877,-0.2906,-0.2911,-0.2915,-0.2916,-0.2916,-0.2915,-0.2923,-0.2921,-0.2915,-0.2915,-0.2914,-0.2914,0,-0.2736,-0.274,-0.2769,-0.2783,-0.2787,-0.2806,-0.2818,-0.2834,-0.284,-0.2864,-0.2869,-0.2878,-0.2901,-0.2906,-0.2933,-0.2936,-0.2971,-0.2968,-0.2966,-0.2966,-0.2987,-0.2985,-0.3053,-0.3062,-0.3004,-0.3005,-0.3005,0,-0.2763,-0.2781,-0.2796,-0.2808,-0.2816,-0.2835,-0.2848,-0.285,-0.2863,-0.2882,-0.2897,-0.2919,-0.2937,-0.2974,-0.2983,-0.3004,-0.3003,-0.3025,-0.3006,-0.3006,-0.3005,-0.3004,-0.3007,-0.3029,-0.303,-0.303,-0.3031,0,-0.281,-0.2812,-0.2829,-0.2847,-0.2862,-0.2877,-0.2891,-0.2902,-0.2906,-0.2922,-0.2944,-0.2958,-0.2986,-0.3009,-0.303,-0.304,-0.3037,-0.3036,-0.3043,-0.3043,-0.3041,-0.3044,-0.2976,-0.3035,-0.3035,-0.3034,-0.3034,-0.3034,-0.2844,-0.286,-0.2874,-0.2894,-0.2905,-0.2919,-0.2935,-0.2943,-0.2961,-0.2984,-0.2984,-0.301,-0.3025,-0.3054,-0.3065,-0.3086,-0.3079,-0.3088,-0.309,-0.3092,-0.3095,-0.3037,-0.3089,-0.3089,-0.3089,-0.3089,-0.3089,0,-0.2892,-0.2901,-0.2919,-0.2939,-0.2955,-0.295,-0.2966,-0.298,-0.3002,-0.3017,-0.3034,-0.3062,-0.3084,-0.3096,-0.3118,-0.3133,-0.3132,-0.3139,-0.3138,-0.3141,-0.3099,-0.3092,-0.3139,-0.3139,-0.3139,-0.3139,-0.3139,-0.3139,-0.2919,-0.2947,-0.295,-0.2984,-0.2992,-0.3017,-0.3026,-0.304,-0.3051,-0.3082,-0.31,-0.3107,-0.3121,-0.3145,-0.3166,-0.3169,-0.3178,-0.3185,-0.3188,-0.3148,-0.3143,-0.3139,-0.3132,-0.3187,-0.3187,-0.3228,-0.3228,-0.3229]}]]